Regional Weather Roundup
Issued by NWS

Home | Current Version | Previous Version | Graphics & Text | Print | Product List | Glossary On
Versions: 1 2 3 4 5 6 7 8 9 10 11 12 13 14 15 16 17 18 19 20 21 22 23 24 25 26 27 28 29 30 31 32 33 34 35 36 37 38 39 40 41 42 43 44 45 46 47 48 49 50
772
ASUS43 KDMX 230506
RWRIA

WEATHER ROUNDUP FOR IOWA
NATIONAL WEATHER SERVICE DES MOINES IA
1200 AM CDT SAT SEP 23 2017

NOTE: "FAIR" INDICATES FEW OR NO CLOUDS BELOW 12,000 FEET WITH NO
SIGNIFICANT WEATHER AND/OR OBSTRUCTIONS TO VISIBILITY.

* - THESE STATIONS ARE NOT NWS STATIONS...THUS NOT UNDER NWS
QUALITY CONTROL.  THEY ALSO DO NOT REPORT WEATHER SUCH
AS PRECIPITATION OR FOG.

IAZ001>003-012>014-020>022-031>034-043>046-230600-
   NORTHWEST IOWA

CITY           SKY/WX    TMP DP  RH WIND       PRES   REMARKS
CARROLL *      CLEAR     75  68  78 S10       29.91S
CHEROKEE *     CLOUDY    78  68  72 S13       29.87S HX  80
DENISON *      PTCLDY    77  68  73 S16G25    29.91R
LE MARS *      CLOUDY    81  68  65 S15G25    29.84R HX  83
ORANGE CITY *  MOCLDY    81  70  69 S14G20    29.85R HX  84
SHELDON *      CLOUDY    79  68  69 S13G20    29.85R HX  81
SIOUX CITY     MOCLDY    79  69  71 S13       29.84R HX  81
SPENCER        MOCLDY    78  68  71 S14       29.88R HX  80
STORM LAKE *   MOCLDY    75  68  78 S13       29.90S
$$

IAZ055>058-069>071-079>083-090>094-230600-
   SOUTHWEST IOWA

CITY           SKY/WX    TMP DP  RH WIND       PRES   REMARKS
ATLANTIC *     CLEAR     75  68  78 S9        29.93S
AUDUBON *      CLEAR     75  70  83 S9        29.94S
CLARINDA *     CLEAR     73  68  83 S5        29.96S
COUNCIL BLFS * CLEAR     77  72  83 S16       29.90F
CRESTON *      CLEAR     73  68  83 S8        29.98S
HARLAN  *      PTCLDY    75  70  83 S12       29.95S
LAMONI         CLEAR     74  68  81 S5        29.97S
RED OAK *      CLEAR     77  68  73 S9        29.93S
SHENANDOAH *   CLEAR     75  68  78 S7        29.93S
$$

IAZ047>049-059>061-072>074-084-230600-
   CENTRAL IOWA

CITY           SKY/WX    TMP DP  RH WIND       PRES   REMARKS
AMES           PTCLDY    72  69  90 S7        29.95R
ANKENY *       CLEAR     75  68  78 S3        29.96R
BOONE *        CLEAR     75  68  78 S8        29.94S
CHARITON *     CLEAR     72  68  88 S6        29.97S
DES MOINES     CLEAR     75  67  76 S5        29.95R
GRINNELL*      CLEAR     73  66  78 S5        29.98S
KNOXVILLE *    PTCLDY    73  66  78 SW5       29.95S
MARSHALLTOWN   CLOUDY    73  67  81 SE7       29.96R
NEWTON *       CLEAR     72  66  83 S7        29.97S
PELLA *        CLEAR     74  66  75 S5        29.97F
PERRY *          N/A     73  69  86 S6        29.94R
$$

IAZ004>006-015-016-023>025-035-036-230600-
   NORTH CENTRAL IOWA

CITY           SKY/WX    TMP DP  RH WIND       PRES   REMARKS
ALGONA *       PTCLDY    75  68  78 S14       29.91R
CLARION *      CLOUDY    75  70  83 S10G16    29.94R
ESTHERVILLE    PTCLDY    75  68  78 S13       29.88R
FORT DODGE *   PTCLDY    78  67  68 S14       29.93R HX  80
MASON CITY     MOCLDY    73  67  81 S10       29.95R
FOREST CITY *    N/A     75  66  73 S10       29.93S
WEBSTER CITY * CLEAR     75  66  73 S8        29.92R
IOWA FALLS *     N/A     74  67  78 S7        29.97R
$$

IAZ007>011-017>019-026>030-037>042-050>054-066-230600-
   NORTHEAST IOWA

CITY           SKY/WX    TMP DP  RH WIND       PRES   REMARKS
CEDAR RAPIDS   CLEAR     74  65  73 S6        29.98R
CHARLES CITY * CLEAR     75  66  73 S9G15     29.95S
CLINTON *      CLEAR    N/A N/A N/A SE5       30.01S
DECORAH *      CLEAR     73  66  78 S7        29.96S
DUBUQUE        CLEAR     73  65  75 S9        30.01F
MONTICELLO *   CLEAR     70  64  83 SE5       29.98S
OELWEIN *      CLEAR     72  68  88 S8        29.98S
WATERLOO       CLEAR     75  65  70 S8        29.94F
$$

IAZ064-065-067-068-078-230600-
   EAST CENTRAL IOWA

CITY           SKY/WX    TMP DP  RH WIND       PRES   REMARKS
DAVENPORT      CLEAR     73  65  75 SE7       30.02S
IOWA CITY      CLEAR     73  66  78 CALM      29.99S
MUSCATINE *    CLEAR     68  64  88 CALM      29.99S
QUAD CITIES    CLEAR     73  65  75 CALM      29.99S
$$

IAZ062-063-075>077-085>089-095>099-230600-
   SOUTHEAST IOWA

CITY           SKY/WX    TMP DP  RH WIND       PRES   REMARKS
BURLINGTON     CLEAR     73  65  75 S3        29.99S
FAIRFIELD *    CLEAR     75  64  69 S5        29.98S
FORT MADISON * CLEAR     79  63  57 S6        30.01R HX  80
KEOKUK *       CLEAR     77  63  61 SE6       29.99S
OSKALOOSA *      N/A     69  65  86 S3        29.98S
OTTUMWA        CLEAR     74  65  73 S7        29.97S
WASHINGTON *   CLEAR     72  66  83 S6        30.00S
$$

ABBREVIATIONS USED IN REMARKS
   TC - TEMPERATURES IN CELSIUS
  WCI - WIND CHILL INDEX
   HX - HEAT INDEX
  VSB - VISIBILITY
$$





USA.gov is the U.S. government's official web portal to all federal, state and local government web resources and services.